Time,TemperatureF,DewpointF,PressureIn,WindDirection,WindDirectionDegrees,WindSpeedMPH,WindSpeedGustMPH,Humidity,HourlyPrecipIn,Conditions,Clouds,dailyrainin,SoftwareType,DateUTC
2013-10-11 00:13:00,50.0,49.0,30.10,SE,128,5.0,6.0,98,0.00,,,0.07,,2013-10-11 04:13:00,
2013-10-11 00:24:00,50.0,49.0,30.10,SE,128,5.0,6.0,98,0.00,,,0.07,,2013-10-11 04:24:00,
2013-10-11 00:34:00,50.0,49.0,30.10,SE,128,5.0,6.0,98,0.00,,,0.07,,2013-10-11 04:34:00,
2013-10-11 00:44:00,50.0,49.0,30.10,SE,128,5.0,6.0,98,0.00,,,0.07,,2013-10-11 04:44:00,
2013-10-11 01:13:00,50.0,49.0,30.08,ESE,115,2.0,5.0,98,0.00,,,0.07,,2013-10-11 05:13:00,
2013-10-11 01:23:00,50.0,50.0,30.08,ENE,75,0.0,5.0,99,0.00,,,0.07,,2013-10-11 05:23:00,
2013-10-11 01:43:00,49.0,49.0,30.07,East,94,0.0,4.0,99,0.00,,,0.07,,2013-10-11 05:43:00,
2013-10-11 01:52:00,49.0,49.0,30.07,ESE,123,0.0,5.0,99,0.00,,,0.07,,2013-10-11 05:52:00,
2013-10-11 02:12:00,49.0,49.0,30.07,SE,126,3.0,5.0,99,0.00,,,0.07,,2013-10-11 06:12:00,
2013-10-11 02:22:00,49.0,49.0,30.06,SSE,149,0.0,5.0,99,0.00,,,0.07,,2013-10-11 06:22:00,
2013-10-11 02:43:00,49.0,49.0,30.06,ESE,103,1.0,5.0,99,0.00,,,0.07,,2013-10-11 06:43:00,
2013-10-11 02:52:00,49.0,49.0,30.06,ENE,71,0.0,5.0,99,0.00,,,0.07,,2013-10-11 06:52:00,
2013-10-11 03:11:00,48.0,48.0,30.06,ESE,115,1.0,4.0,99,0.00,,,0.07,,2013-10-11 07:11:00,
2013-10-11 03:22:00,48.0,48.0,30.06,ESE,115,1.0,4.0,99,0.00,,,0.07,,2013-10-11 07:22:00,
2013-10-11 03:42:00,50.0,50.0,30.06,ESE,115,0.0,3.0,100,0.00,,,0.07,,2013-10-11 07:42:00,
2013-10-11 03:52:00,50.0,50.0,30.05,ESE,115,0.0,0.0,100,0.00,,,0.07,,2013-10-11 07:52:00,
2013-10-11 04:12:00,50.0,50.0,30.05,East,84,1.0,5.0,100,0.00,,,0.07,,2013-10-11 08:12:00,
2013-10-11 04:22:00,50.0,50.0,30.05,East,84,1.0,5.0,100,0.00,,,0.07,,2013-10-11 08:22:00,
2013-10-11 04:42:00,50.0,50.0,30.05,East,89,0.0,3.0,100,0.00,,,0.07,,2013-10-11 08:42:00,
2013-10-11 04:52:00,50.0,50.0,30.05,East,89,0.0,3.0,100,0.00,,,0.07,,2013-10-11 08:52:00,
2013-10-11 05:12:00,50.0,50.0,30.05,SE,126,1.0,5.0,100,0.00,,,0.07,,2013-10-11 09:12:00,
2013-10-11 05:22:00,50.0,50.0,30.05,SE,126,1.0,5.0,100,0.00,,,0.07,,2013-10-11 09:22:00,
2013-10-11 05:43:00,50.0,50.0,30.05,SE,127,0.0,4.0,100,0.01,,,0.08,,2013-10-11 09:43:00,
2013-10-11 05:54:00,50.0,50.0,30.05,SE,127,0.0,4.0,100,0.01,,,0.08,,2013-10-11 09:54:00,
2013-10-11 06:12:00,50.0,50.0,30.05,SE,129,5.0,5.0,100,0.02,,,0.09,,2013-10-11 10:12:00,
2013-10-11 06:23:00,50.0,50.0,30.05,SE,140,3.0,6.0,100,0.01,,,0.09,,2013-10-11 10:23:00,
2013-10-11 06:42:00,50.0,50.0,30.05,ESE,121,0.0,6.0,100,0.01,,,0.09,,2013-10-11 10:42:00,
2013-10-11 06:53:00,50.0,50.0,30.05,ESE,121,0.0,6.0,100,0.01,,,0.09,,2013-10-11 10:53:00,
2013-10-11 07:12:00,50.0,50.0,30.05,SSE,167,0.0,4.0,100,0.00,,,0.09,,2013-10-11 11:12:00,
2013-10-11 07:22:00,50.0,50.0,30.05,ESE,106,0.0,7.0,100,0.00,,,0.09,,2013-10-11 11:22:00,
2013-10-11 07:33:00,50.0,50.0,30.05,ESE,106,0.0,7.0,100,0.00,,,0.09,,2013-10-11 11:33:00,
2013-10-11 07:52:00,50.0,50.0,30.05,ESE,113,0.0,3.0,100,0.00,,,0.09,,2013-10-11 11:52:00,
2013-10-11 08:12:00,50.0,50.0,30.05,SE,132,0.0,6.0,100,0.00,,,0.09,,2013-10-11 12:12:00,
2013-10-11 08:22:00,50.0,50.0,30.05,SE,132,0.0,6.0,100,0.00,,,0.09,,2013-10-11 12:22:00,
2013-10-11 08:42:00,51.0,51.0,30.06,NW,314,0.0,3.0,100,0.00,,,0.09,,2013-10-11 12:42:00,
2013-10-11 08:52:00,51.0,51.0,30.07,WNW,292,0.0,4.0,100,0.00,,,0.09,,2013-10-11 12:52:00,
2013-10-11 09:12:00,51.0,51.0,30.07,SSW,202,3.0,3.0,99,0.00,,,0.09,,2013-10-11 13:12:00,
2013-10-11 09:22:00,51.0,51.0,30.07,SSW,202,3.0,3.0,99,0.00,,,0.09,,2013-10-11 13:22:00,
2013-10-11 09:43:00,51.0,51.0,30.07,SE,130,4.0,5.0,99,0.00,,,0.09,,2013-10-11 13:43:00,
2013-10-11 09:53:00,51.0,51.0,30.07,SE,130,4.0,5.0,99,0.00,,,0.09,,2013-10-11 13:53:00,
2013-10-11 10:11:00,51.0,51.0,30.08,East,94,3.0,9.0,99,0.00,,,0.09,,2013-10-11 14:11:00,
2013-10-11 10:22:00,51.0,51.0,30.08,East,94,3.0,9.0,99,0.00,,,0.09,,2013-10-11 14:22:00,
2013-10-11 10:32:00,51.0,51.0,30.08,East,94,3.0,9.0,99,0.00,,,0.09,,2013-10-11 14:32:00,
2013-10-11 10:42:00,51.0,51.0,30.08,East,94,3.0,9.0,99,0.00,,,0.09,,2013-10-11 14:42:00,
2013-10-11 10:52:00,52.0,52.0,30.08,SE,127,0.0,6.0,99,0.00,,,0.09,,2013-10-11 14:52:00,
2013-10-11 11:11:00,51.0,51.0,30.09,ESE,102,4.0,4.0,100,0.01,,,0.10,,2013-10-11 15:11:00,
2013-10-11 11:22:00,51.0,51.0,30.09,ESE,102,4.0,4.0,100,0.01,,,0.10,,2013-10-11 15:22:00,
2013-10-11 11:44:00,51.0,51.0,30.09,SE,134,0.0,7.0,100,0.15,,,0.24,,2013-10-11 15:44:00,
2013-10-11 11:54:00,51.0,51.0,30.09,SE,134,0.0,7.0,100,0.15,,,0.24,,2013-10-11 15:54:00,
2013-10-11 12:04:00,51.0,51.0,30.09,SE,134,0.0,7.0,100,0.15,,,0.24,,2013-10-11 16:04:00,
2013-10-11 12:13:00,51.0,51.0,30.09,SE,134,0.0,7.0,100,0.15,,,0.24,,2013-10-11 16:13:00,
2013-10-11 13:12:00,53.0,53.0,30.07,ESE,122,0.0,5.0,100,0.13,,,0.51,,2013-10-11 17:12:00,
2013-10-11 13:22:00,54.0,54.0,30.07,ESE,107,4.0,9.0,100,0.09,,,0.51,,2013-10-11 17:22:00,
2013-10-11 13:43:00,54.0,54.0,30.08,SE,128,5.0,10.0,100,0.07,,,0.51,,2013-10-11 17:43:00,
2013-10-11 13:53:00,54.0,54.0,30.08,SE,128,5.0,10.0,100,0.07,,,0.51,,2013-10-11 17:53:00,
2013-10-11 14:12:00,55.0,55.0,30.06,NNE,24,0.0,7.0,100,0.00,,,0.51,,2013-10-11 18:12:00,
2013-10-11 14:22:00,55.0,55.0,30.06,NNE,24,0.0,7.0,100,0.00,,,0.51,,2013-10-11 18:22:00,
2013-10-11 14:43:00,57.0,57.0,30.05,WSW,242,3.0,7.0,99,0.00,,,0.51,,2013-10-11 18:43:00,
2013-10-11 14:53:00,56.0,55.0,30.06,SSW,193,2.0,6.0,98,0.00,,,0.51,,2013-10-11 18:53:00,
2013-10-11 15:02:00,56.0,55.0,30.06,SSW,193,2.0,6.0,98,0.00,,,0.51,,2013-10-11 19:02:00,
2013-10-11 15:11:00,56.0,55.0,30.06,SSW,193,2.0,6.0,98,0.00,,,0.51,,2013-10-11 19:11:00,
2013-10-11 15:22:00,56.0,55.0,30.06,SSW,193,2.0,6.0,98,0.00,,,0.51,,2013-10-11 19:22:00,
2013-10-11 15:43:00,56.0,56.0,30.06,ESE,113,0.0,7.0,99,0.00,,,0.51,,2013-10-11 19:43:00,
2013-10-11 15:52:00,55.0,54.0,30.06,ESE,111,3.0,5.0,98,0.00,,,0.51,,2013-10-11 19:52:00,
2013-10-11 16:12:00,55.0,55.0,30.06,SSE,159,0.0,5.0,99,0.00,,,0.51,,2013-10-11 20:12:00,
2013-10-11 16:22:00,55.0,55.0,30.06,SE,138,0.0,4.0,99,0.00,,,0.51,,2013-10-11 20:22:00,
2013-10-11 16:43:00,55.0,55.0,30.06,East,90,2.0,2.0,100,0.00,,,0.51,,2013-10-11 20:43:00,
2013-10-11 16:53:00,55.0,55.0,30.06,East,90,2.0,2.0,100,0.00,,,0.51,,2013-10-11 20:53:00,
2013-10-11 17:03:00,55.0,55.0,30.06,East,90,2.0,2.0,100,0.00,,,0.51,,2013-10-11 21:03:00,
2013-10-11 17:12:00,55.0,55.0,30.06,East,90,2.0,2.0,100,0.00,,,0.51,,2013-10-11 21:12:00,
2013-10-11 17:43:00,56.0,56.0,30.06,East,93,0.0,3.0,99,0.00,,,0.50,,2013-10-11 21:43:00,
2013-10-11 17:55:00,56.0,56.0,30.06,SE,124,2.0,5.0,99,0.00,,,0.50,,2013-10-11 21:55:00,
2013-10-11 18:13:00,56.0,56.0,30.07,ESE,117,0.0,0.0,99,0.00,,,0.49,,2013-10-11 22:13:00,
2013-10-11 18:24:00,56.0,56.0,30.07,ESE,117,0.0,0.0,99,0.00,,,0.49,,2013-10-11 22:24:00,
2013-10-11 18:43:00,56.0,56.0,30.08,WNW,286,2.0,5.0,99,0.00,,,0.47,,2013-10-11 22:43:00,
2013-10-11 18:54:00,55.0,55.0,30.08,WNW,290,4.0,7.0,99,0.01,,,0.48,,2013-10-11 22:54:00,
2013-10-11 19:12:00,55.0,55.0,30.09,NW,311,5.0,7.0,100,0.02,,,0.48,,2013-10-11 23:12:00,
2013-10-11 19:22:00,55.0,55.0,30.09,NW,305,2.0,6.0,100,0.03,,,0.49,,2013-10-11 23:22:00,
2013-10-11 19:42:00,54.0,54.0,30.08,WNW,296,2.0,6.0,100,0.03,,,0.49,,2013-10-11 23:42:00,
2013-10-11 19:53:00,54.0,54.0,30.08,NW,306,0.0,0.0,100,0.02,,,0.48,,2013-10-11 23:53:00,
2013-10-11 20:02:00,54.0,54.0,30.08,NW,306,0.0,0.0,100,0.02,,,0.48,,2013-10-12 00:02:00,
2013-10-11 20:12:00,54.0,54.0,30.08,NW,306,0.0,0.0,100,0.02,,,0.48,,2013-10-12 00:12:00,
2013-10-11 20:22:00,54.0,54.0,30.08,NW,306,2.0,4.0,100,0.00,,,0.47,,2013-10-12 00:22:00,
2013-10-11 20:42:00,55.0,55.0,30.08,East,84,0.0,7.0,100,0.01,,,0.48,,2013-10-12 00:42:00,
2013-10-11 20:53:00,55.0,55.0,30.08,East,84,0.0,7.0,100,0.01,,,0.48,,2013-10-12 00:53:00,
2013-10-11 21:02:00,55.0,55.0,30.08,East,84,0.0,7.0,100,0.01,,,0.48,,2013-10-12 01:02:00,
2013-10-11 21:11:00,55.0,55.0,30.08,East,84,0.0,7.0,100,0.01,,,0.48,,2013-10-12 01:11:00,
2013-10-11 21:22:00,54.0,54.0,30.08,East,89,3.0,6.0,100,0.01,,,0.48,,2013-10-12 01:22:00,
2013-10-11 21:42:00,54.0,54.0,30.08,ESE,113,2.0,9.0,100,0.00,,,0.48,,2013-10-12 01:42:00,
2013-10-11 21:52:00,54.0,54.0,30.08,SE,131,2.0,10.0,100,0.00,,,0.48,,2013-10-12 01:52:00,
2013-10-11 22:12:00,54.0,54.0,30.09,ESE,123,5.0,12.0,100,0.00,,,0.48,,2013-10-12 02:12:00,
2013-10-11 22:23:00,54.0,54.0,30.09,ENE,74,7.0,15.0,100,0.00,,,0.48,,2013-10-12 02:23:00,
2013-10-11 22:42:00,54.0,54.0,30.09,ESE,107,5.0,12.0,100,0.00,,,0.48,,2013-10-12 02:42:00,
2013-10-11 22:52:00,53.0,53.0,30.08,East,95,5.0,13.0,100,0.00,,,0.48,,2013-10-12 02:52:00,
2013-10-11 23:12:00,53.0,53.0,30.08,East,91,9.0,11.0,100,0.00,,,0.48,,2013-10-12 03:12:00,
2013-10-11 23:23:00,53.0,53.0,30.08,East,91,9.0,11.0,100,0.00,,,0.48,,2013-10-12 03:23:00,
2013-10-11 23:44:00,53.0,53.0,30.08,ESE,110,4.0,8.0,100,0.00,,,0.48,,2013-10-12 03:44:00,
2013-10-11 23:54:00,53.0,53.0,30.08,ESE,110,4.0,8.0,100,0.00,,,0.48,,2013-10-12 03:54:00,